Omaha, Nebraska, United States (68101)
Lat: 41.26N, Lon: 95.94W
Wx Zone: NEZ052
Local Info
Past Weather Observations for Today

NOTE: This archive is for the closest National Weather Service station to Omaha. Information may differ from the station used for current weather conditions.

Click here for Long-term Archive

Time Weather Temperature Dewpoint Humidity Pressure Winds Precip Visibility
22:52
Mostly Cloudy
32°F / 0°C 19°F / -7°C 60% 30.48 in
(1032 mb)
SE 4.6 mph
(SE 7 kph)
- 10SM
21:52
Mostly Cloudy
32°F / 0°C 19°F / -7°C 60% 30.48 in
(1032 mb)
ESE 5.8 mph
(ESE 9 kph)
- 10SM
20:52
Mostly Cloudy
36°F / 2°C 18°F / -8°C 48% 30.48 in
(1032 mb)
E 8.1 mph
(E 13 kph)
- 10SM
19:52
Mostly Cloudy
37°F / 3°C 21°F / -6°C 52% 30.48 in
(1032 mb)
E 5.8 mph
(E 9 kph)
- 10SM
18:52
Mostly Cloudy
37°F / 3°C 18°F / -8°C 45% 30.48 in
(1032 mb)
NE 6.9 mph
(NE 11 kph)
- 10SM
17:52
Partly Cloudy
39°F / 4°C 19°F / -7°C 45% 30.48 in
(1032 mb)
ENE 5.8 mph
(ENE 9 kph)
- 10SM
16:52
Partly Cloudy
43°F / 6°C 18°F / -8°C 36% 30.48 in
(1032 mb)
NE 3.5 mph
(NE 6 kph)
- 10SM
15:52
Partly Cloudy
45°F / 7°C 16°F / -9°C 31% 30.51 in
(1033 mb)
NNE 4.6 mph
(NNE 7 kph)
- 10SM
14:52
Partly Cloudy
45°F / 7°C 16°F / -9°C 31% 30.51 in
(1033 mb)
NNW 8.1 mph
(NNW 13 kph)
- 10SM
13:52
Partly Cloudy
43°F / 6°C 18°F / -8°C 36% 30.54 in
(1034 mb)
Variable 6.9 mph
(Variable 11 kph)
- 10SM
12:52
Partly Cloudy
41°F / 5°C 18°F / -8°C 39% 30.54 in
(1034 mb)
NNW 6.9 mph
(NNW 11 kph)
- 10SM
11:52
Clear
39°F / 4°C 19°F / -7°C 45% 30.57 in
(1035 mb)
N 11.5 mph
(N 19 kph)
- 10SM
10:52
Clear
37°F / 3°C 19°F / -7°C 48% 30.6 in
(1036 mb)
N 10.4 mph
(N 17 kph)
- 10SM
09:52
Clear
34°F / 1°C 19°F / -7°C 56% 30.6 in
(1036 mb)
N 11.5 mph
(N 19 kph)
- 10SM
08:52
Clear
32°F / 0°C 19°F / -7°C 60% 30.6 in
(1036 mb)
N 15 mph
(N 24 kph)
- 10SM
07:52
Clear
28°F / -2°C 21°F / -6°C 74% 30.57 in
(1035 mb)
NNW 15 mph
(NNW 24 kph)
- 10SM
06:52
Clear
28°F / -2°C 21°F / -6°C 74% 30.57 in
(1035 mb)
NNW 13.8 mph
(NNW 22 kph)
- 10SM
05:52
Clear
28°F / -2°C 21°F / -6°C 74% 30.54 in
(1034 mb)
NNW 13.8 mph
(NNW 22 kph)
- 10SM
04:52
Clear
30°F / -1°C 21°F / -6°C 69% 30.51 in
(1033 mb)
NNW 15 mph
(NNW 24 kph)
- 10SM
03:52
Partly Cloudy
30°F / -1°C 21°F / -6°C 69% 30.48 in
(1032 mb)
NNW 11.5 mph
(NNW 19 kph)
- 10SM
02:52
Partly Cloudy
34°F / 1°C 21°F / -6°C 60% 30.48 in
(1032 mb)
N 13.8 mph
(N 22 kph)
- 10SM
01:52
Mostly Cloudy
34°F / 1°C 21°F / -6°C 60% 30.45 in
(1031 mb)
N 23 mph
(N 37 kph)
- 10SM
00:52
Overcast
37°F / 3°C 27°F / -3°C 65% 30.45 in
(1031 mb)
N 18.4 mph
(N 30 kph)
- 10SM
Time Weather Temperature Dewpoint Humidity Pressure Winds Precip Visibility


Weather for websites

WeatherForYou.com, LLC is not responsible for any damages or problems caused by this service. Current weather conditions are obtained from the closest station including government and personal stations which may have varying degrees of accuracy. Weather forecasts are derived from the NOAA NDFD. Like all things, this site belongs to Jesus Christ... He just trusts me to maintain it. If you have any questions or comments email webmaster@weatherforyou.com

Copyright © 2014, WeatherForYou.com LLC. All rights reserved.